sat.trackr.live / text

‹ back to catalog

STARLINK-30586

NORAD 58084 · 2023-160K

PAYLOAD ACTIVE UNKNOWN

§ Identity

Operator
Country
US
Launch date
2023-10-18
Launch site
AFETR
Launch vehicle
Mass (kg)
RCS (m²)

Purposes: comms

External: N2YO · Heavens-Above · Gunter

§ Orbital elements

Epoch: 2026-05-24T23:34:28.068384Z

Period
94.27 min
Inclination
43.0023°
Eccentricity
0.0001418
Mean motion
15.27606298 rev/d
Perigee alt
482.0 km
Apogee alt
483.9 km
Semi-major
6,861.1 km
B*
8.6540e-4
RAAN
10.4394°
Arg perigee
258.0036°
Mean anomaly
102.0657°
Rev number
14,457

§ Raw data

STARLINK-305861 58084U 23160K   26144.98226931  .00023647  00000+0  86540-3 0  99912 58084  43.0023  10.4394 0001418 258.0036 102.0657 15.27606298144576

JSON: /api/v1/satellites/58084 · /tle

For live sub-satellite position, see the globe view (requires WebGL).

§ Visibility from observer

Set your observer location to see the next 7 days of passes ≥ 10°. The values pass through the URL so the page stays shareable.

No JS? Fill the form by hand. The geolocation button needs JavaScript.